Simultaneous Nadir Overpasses (SNOs) Predictions

Prediction of SNOs between METOP-A and NPP Satellite Orbit:

Table of predicted SNOs for the next 14.0 days since TLE Epoch: 1/23/2021
Index Date (METOP-A) Time (METOP-A) Lat,Lon (METOP-A) SZA (METOP-A ) Date (NPP) Time (NPP) Lat,Lon (NPP) SZA (NPP ) Distance(km) Time Diff (sec)
1 02/05/2021 23:49:22 76.68, 166.55 92.96 02/05/2021 23:48:14 76.69, 163.90 93.21 68.00 68
2 02/06/2021 00:40:06 -76.58, -26.46 87.12 02/06/2021 00:38:56 -76.58, -28.34 86.95 48.36 70
3 02/06/2021 01:30:51 76.34, 140.00 92.71 02/06/2021 01:29:36 76.34, 139.85 92.75 3.97 75
4 02/06/2021 02:21:33 -76.34, -52.68 87.31 02/06/2021 02:20:20 -76.31, -52.74 87.30 3.27 73
5 02/06/2021 03:12:13 76.32, 114.59 92.68 02/06/2021 03:11:05 76.30, 114.62 92.68 2.51 68



Historial Predications of SNOs between METOP-A and NPP
